Location: Chalet � Gobet
(46.5648°N, 6.6926°E)
Time: 14:40:50
(UTC+00:00)

Daily predictions for brighter satellites

Satellite Brightness Start Highest point End
(mag) Time Altitude Azimuth Time Altitude Azimuth Time Altitude Azimuth
Cosmos 1821 Rocket 4.1 16:51:31 10° S 16:57:47 61° E 17:04:01 10° NNE
Cosmos 405 Rocket 3.0 16:58:30 10° N 17:02:24 49° ENE 17:06:19 10° SSE
USA 267 3.3 16:56:07 10° SE 17:02:42 89° NE 17:09:18 10° NW
CENTAUR R/B 4.4 16:58:44 10° NW 17:04:00 22° N 17:09:54 10° NE
ARGOS 3.8 17:01:16 10° SE 17:06:04 34° ENE 17:10:54 10° N
CZ-4B R/B 3.4 17:01:05 10° SE 17:06:33 52° ENE 17:12:02 10° N
CZ-4B DEB 4.3 17:02:30 10° SSE 17:08:03 89° WSW 17:13:39 10° NNW
Cosmos 1544 Rocket 4.4 17:05:47 10° SSE 17:09:39 30° E 17:13:33 10° NNE
Cosmos 1934 Rocket 4.3 17:05:07 10° SSE 17:10:44 40° E 17:16:20 10° NNE
Cosmos 2263 Rocket 2.2 17:07:03 10° NNW 17:12:40 83° ENE 17:18:14 10° SSE
PSLV R/B 3.9 17:10:03 10° SSE 17:14:04 83° WSW 17:18:02 10° NNW
NOSS 3-1 (C) 3.8 17:09:30 10° S 17:14:15 37° ESE 17:19:41 10° NE
SME Rocket 4.2 17:10:23 10° N 17:14:34 59° WNW 17:20:24 10° SSW
Landsat 5 4.3 17:10:41 10° NNE 17:14:44 34° E 17:18:50 10° SSE
Cosmos 1980 Rocket 2.6 17:11:16 10° SW 17:16:55 69° WNW 17:22:37 10° NNE
Okean O Rocket 1.8 17:15:07 10° SE 17:19:15 47° ENE 17:23:28 10° N
PAYLOAD B 4.3 17:14:43 10° SSE 17:20:15 89° WSW 17:25:52 10° NNW
Cosmos 2227 4.2 17:14:47 10° NNW 17:20:35 77° ENE 17:26:20 10° SSE
NOSS 2-3 (C) 4.2 17:18:42 10° S 17:22:19 33° ESE 17:26:24 10° NE
SL-8 R/B 3.7 17:17:32 10° WSW 17:22:20 84° SSE 17:26:39 13° ENE
CZ-2C R/B 3.0 17:20:14 10° NNE 17:25:35 44° E 17:30:49 10° S
X-37B 0.8 17:22:58 10° W 17:25:49 56° S 17:28:10 14° ESE
Lacrosse 4 Rocket 2.1 17:24:58 10° NNW 17:28:59 37° NE 17:33:00 10° ESE
Meteor 1-4 Rocket 3.7 17:26:20 10° SE 17:29:00 21° E 17:31:41 10° NE
SMAP 4.4 17:25:17 10° S 17:29:44 44° W 17:34:12 10° NNW
Cosmos 1892 4.1 17:28:56 10° NNE 17:31:40 19° ENE 17:32:57 16° E
Cosmos 1328 3.8 17:27:45 10° N 17:31:48 67° E 17:35:48 10° SSE
Cosmos 371 Rocket 3.4 17:27:30 10° S 17:32:15 56° ESE 17:37:03 10° NNE
deb Chang Zheng 4 3.6 17:28:11 10° SSE 17:32:22 85° WSW 17:36:38 10° NNW
CZ-2D R/B 3.5 17:28:38 10° S 17:32:29 75° WSW 17:36:23 10° NNW
Cosmos 1697 Rocket 4.4 17:27:42 10° WSW 17:32:42 31° NW 17:37:42 10° NNE
MOS 1-B Rocket 4.2 17:26:19 10° NNE 17:32:43 51° E 17:38:21 10° S
Cosmos 1602 Rocket 4.3 17:30:06 10° N 17:33:58 30° ENE 17:37:48 10° SE
Cosmos 2123 Rocket 4.0 17:29:53 10° N 17:36:14 70° E 17:42:28 10° SSE
SJ-11-01 4.3 17:31:41 10° SSE 17:36:16 58° ENE 17:40:55 10° N
CZ-2C R/B 3.6 17:35:13 10° SSW 17:36:26 11° SSW 17:37:38 10° S
Okean 1-7 Rocket 3.5 17:32:21 10° N 17:36:47 67° E 17:41:11 10° SSE
COSMO-SKYMED 1 2.5 17:34:01 10° NNE 17:38:22 65° ESE 17:42:40 10° S
CZ-4C R/B 3.1 17:37:06 10° NNE 17:40:19 43° E 17:43:27 10° S
Okean-O 3.8 17:39:01 17° E 17:40:54 22° ENE 17:44:18 10° NNE
Cosmos 1953 3.3 17:37:31 10° SSW 17:41:27 50° WNW 17:45:26 10° N
Cosmos 1844 Rocket 3.2 17:40:18 10° NNW 17:45:28 37° NE 17:49:18 17° ESE
SL-08 RB Rocket 3.9 17:42:55 10° SE 17:47:18 49° ENE 17:51:46 10° N
Tiangong 2.3 17:44:39 10° WSW 17:47:34 32° S 17:49:05 21° SE
Cosmos 614 Rocket 4.3 17:43:03 10° N 17:47:53 42° ENE 17:52:18 12° SE
Cosmos 839 Rocket 4.3 17:40:05 10° NNW 17:47:54 69° NE 17:54:17 10° SE
Iridium 4 Rocket 3.2 17:43:48 10° N 17:48:26 78° E 17:53:30 10° S
Meteor 2-10 Rocket 3.7 17:54:26 10° S 17:59:49 51° E 18:05:01 10° NNE
Cosmos 1408 3.3 17:57:08 10° N 18:00:10 31° ENE 18:00:10 31° ENE
Cosmos 44 4.0 17:58:02 10° S 18:03:05 40° ESE 18:05:39 25° ENE
Cosmos 1758 Rocket 3.9 17:59:18 10° N 18:03:23 39° ENE 18:05:22 25° SE
Cosmos 2278 Rocket 4.0 18:03:30 10° N 18:06:20 14° NE 18:06:51 14° NE
CZ-4 R/B 1.3 18:02:37 10° SSE 18:06:35 63° ENE 18:10:40 10° N
Cosmos 1626 Rocket 3.5 18:05:02 10° N 18:09:22 82° W 18:13:41 10° S
USA 215 3.9 18:05:33 13° NE 18:11:06 49° NNW 18:17:19 10° W
NOSS 2-3 (E) 3.4 18:08:26 10° SW 18:12:26 87° WNW 18:15:31 21° NE
H-2A R/B 3.3 18:07:55 10° S 18:13:05 45° W 18:18:20 10° NNW
SL-16 R/B 2.2 18:07:53 10° SSW 18:13:34 84° WNW 18:19:17 10° NNE
ATLAS 5 CENTAUR R/B 3.3 18:10:28 10° W 18:13:54 26° NW 18:17:47 10° NNE
Cosmos 1300 3.5 18:11:26 10° SSW 18:15:08 52° WNW 18:18:53 10° N
H-2A R/B 2.5 18:12:13 10° SSE 18:16:32 83° WSW 18:20:42 10° NNW
USA 229 DEB 3.6 18:11:00 10° SSW 18:17:12 60° ESE 18:22:03 19° NE
USA 229 3.6 18:11:06 10° SSW 18:17:19 59° ESE 18:22:06 19° NE
DMSP B5D2-2 4.1 18:12:39 10° NNE 18:17:48 54° E 18:22:54 10° S
IRAS Rocket 4.1 18:13:29 10° NNE 18:19:05 77° ESE 18:24:35 10° SSW
Cosmos 1825 4.0 18:17:03 10° N 18:18:15 18° NNE 18:18:15 18° NNE
OE (NEXTSAT) 4.3 18:20:21 10° WSW 18:23:43 66° S 18:23:43 66° S
Cosmos 1605 Rocket 4.0 18:17:47 10° S 18:24:04 89° WNW 18:30:29 10° N
Cosmos 2322 Rocket 2.1 18:20:51 10° SSW 18:26:28 87° WNW 18:32:08 10° NNE
Cosmos 304 Rocket 3.8 18:22:25 10° SSW 18:27:12 79° WNW 18:32:02 10° NNE
Cosmos 220 Rocket 3.9 18:23:26 10° SSW 18:27:51 79° ESE 18:30:18 26° NNE
YAOGAN 1 2.8 18:27:39 10° S 18:31:58 70° WSW 18:36:18 10° NNW
Cosmos 1447 Rocket 4.3 18:26:43 10° N 18:32:54 85° E 18:39:03 10° S
Cosmos 2219 Rocket 4.3 18:29:52 10° SSE 18:30:02 11° SSE 18:30:02 11° SSE
Cosmos 1844 3.6 18:28:53 10° NNW 18:34:41 70° ENE 18:36:47 40° SE
H-2A R/B 1.8 18:33:54 45° NNE 18:35:05 73° ESE 18:39:16 10° S
Cosmos 2360 Rocket 2.0 18:31:12 10° SSW 18:36:48 71° ESE 18:40:24 23° NE
ATLAS 3B R/B 4.5 18:32:25 10° WNW 18:37:42 23° NNW 18:43:10 10° NNE
NOSS 3-1 (A) 3.1 18:34:20 10° SW 18:39:37 83° SE 18:42:42 30° NE
Cosmos 2333 Rocket 3.4 18:35:09 10° S 18:37:49 25° SSE 18:37:49 25° SSE
HJ-1C 4.0 18:41:53 53° W 18:41:53 53° W 18:44:58 10° NNW
Cosmos 1153 Rocket 4.4 18:36:05 10° S 18:42:28 81° E 18:48:54 10° N
BREEZE-M R/B 2.7 18:41:37 10° WNW 18:45:00 75° SSW 18:45:40 60° SE
Cosmos 332 Rocket 4.5 18:41:00 10° SW 18:45:47 55° WNW 18:50:36 10° NNE
MetOp-A 4.0 18:46:55 31° SSE 18:49:34 88° ENE 18:54:58 10° NNW
BREEZE-M DEB (TANK) 4.2 18:38:33 10° W 18:50:10 67° N 18:51:01 55° NE
Cosmos 2251 Rocket 3.9 18:47:09 10° NNW 18:52:20 61° WSW 18:55:32 23° S
Okean O Rocket 4.3 18:52:48 10° SW 18:55:52 19° W 18:58:58 10° NW
Cosmos 407 Rocket 3.4 18:51:32 10° NNW 18:56:49 73° ENE 18:56:49 73° ENE
CENTAUR R/B 4.2 18:50:58 10° NW 18:57:24 28° NNE 18:59:22 26° NE
Cosmos 1140 Rocket 3.5 18:55:16 10° NNW 19:00:02 69° NNE 19:00:02 69° NNE
X-37B 3.5 18:58:55 10° WSW 18:59:34 14° WSW 18:59:34 14° WSW
Cosmos 2344 4.4 18:52:01 10° NW 19:01:16 77° SW 19:11:48 17° SSE
CSL-04 Debris 4.2 19:00:03 41° S 19:02:00 79° WSW 19:07:27 10° NNW
NOSS 3-1 (C) 4.2 18:59:41 10° WSW 19:04:53 46° NW 19:08:49 21° NNE
SL-8 R/B 3.9 19:00:14 10° W 19:04:36 65° NW 19:04:36 65° NW
CZ-2C R/B 4.5 19:00:50 10° N 19:05:40 31° WNW 19:10:27 10° WSW
Cosmos 1892 4.3 19:04:00 10° NNW 19:07:25 33° W 19:07:58 31° WSW
Lacrosse 4 Rocket 3.4 19:03:49 10° NW 19:07:31 28° WSW 19:09:21 21° SSW
CSL-04 Rocket 3.9 19:12:58 49° SSW 19:14:26 70° WSW 19:20:00 10° NNW
Okean-O 3.6 19:16:36 42° WSW 19:17:06 43° W 19:21:21 10° NNW
Cosmos 2346 Rocket 4.3 19:11:16 10° N 19:17:31 82° ENE 19:17:31 82° ENE
Orbus 7S? 4.4 19:12:33 10° NW 19:19:15 54° WSW 19:19:15 54° WSW
Cosmos 1844 Rocket 3.8 19:24:14 10° NW 19:29:23 39° WSW 19:31:01 31° SW
Cosmos 1459 Rocket 4.3 19:39:40 10° SSW 19:45:48 60° WNW 19:51:52 10° N
Cosmos 2278 Rocket 3.8 19:46:07 10° NNW 19:48:42 27° N 19:48:42 27° N
USA 215 4.2 19:52:54 35° N 19:53:19 36° N 19:59:08 10° WNW
Cosmos 2360 Rocket 4.2 20:16:54 10° W 20:21:23 24° NW 20:22:14 23° NNW
CENTAUR R/B 4.0 20:41:42 10° NW 20:46:32 41° NNW 20:46:32 41° NNW
